Location: Warner Observatory
(35.1353°N, 89.5455°W)
Time: 00:39:26
(UTC-06:00)

Envisat - Pass Details

Date: 25 January 2020
Orbit: 764 x 766 km, 98.1° (Epoch: 20 February)

Event Time Altitude Azimuth Distance (km) Brightness Sun altitude
Rises 05:16:12 0° 37° (NE) 3,234 6.6 -21.6°
Reaches altitude 10° 05:19:58 10° 66° (ENE) 2,302 6.3 -20.9°
Maximum altitude 05:22:08 13° 91° (E) 2,118 6.4 -20.4°
Drops below altitude 10° 05:24:17 10° 117° (ESE) 2,295 6.5 -20.0°
Sets 05:28:00 0° 145° (SE) 3,215 6.9 -19.3°
